DECAYED
Showing default

LEMUR 2 JIN-LUEN, 43182 (Decayed)

Orbit data source: Space-Track

LEMUR 2 JIN-LUEN, 43182 was a payload satellite owned by Spire (US) in LEO that was launched on Thu, 01 Feb 2018 UTC via a SOYUZ-2-1A launch vehicle from the Vostochny Cosmodrome (VOSTO). Payload-class satellites include a variety of spacecraft equipped with specific instruments for various scientific and technological missions. These include communications satellites like Starlink; space stations such as the ISS; scientific satellites like the Hubble; Earth observation satellites from companies like Planet Labs, Umbra, and HawkEye 360; GPS; miniature CubeSats for education and research; and military/defense satellites.

Not visible in the next 10 days
Identifier
43182, 2018-014C
Orbit
Decayed
Country
Flag of USUS
Related business
Manufacturer
Spire/Glasgow
Mission
Decayed Commercial Com/MetRO
Bus & Motor
CUBESAT 3U, Unknown motor
Mass
4.6 kg wet, 4.6 kg dry
Launch date (UTC)
2018-02-01 (8 years ago)
Launch vehicle
SOYUZ-2-1A
Launch site
Vostochny Cosmodrome (VOSTO)
Object type
Payload
Rocket body
Debris
Shape & HBR
Box + 2 Pan, 0.5 m
Radar Cross Section
0.124 m², Medium (>0.1 m² and < 1m²)

Expand to show TLE details & history
Last TLE update: 2 months ago

TLE from 2 months ago
0 LEMUR 2 JIN-LUEN
1 43182U 18014C   26098.19860872  .11126440  26982-5  11308-2 0  9994
2 43182  97.5265  31.8288 0009231 200.2027 159.8907 16.37922015450163
Epoch: 2026-04-08T04:45Z
TLE epoch observation values (Epoch: 2026-04-08T04:45:59.793Z)
Latitude
-0.00002°
Longitude
123.86525°
Altitude
180.26 km
Speed
7.795 km/s
True Right ascension
02h 07m 18s
True Declination
0° 00' 00"
Sunlit
Object was in daylight at epoch
Visualization orbit readout
Latitude
Unknown
Longitude
Unknown
Altitude
Unknown
Speed
Unknown
Apparent Right ascension
Unknown
Apparent Declination
Unknown
Sunlit
N/A
Visualization observer readout
Local Sidereal Time
16:49:54
Azimuth
Unknown
Elevation
Unknown
Doppler factor
Unknown
Orbital elements
Apogee altitude
174.195 km
Perigee altitude
162.109 km
Semi-major axis
6,546.289 km
Eccentricity
0.00092
Inclination
97.5265°
RAAN
31.8288°
Arg. of periapsis
200.2027°
True anomaly
159.92703°
Mean anomaly
159.8907°
Eccentric anomaly
159.90887°
Mean motion
4.0978 °/min
Orbital period
87.85 mins
BSTAR
0.0011308
Loading maneuver chart data...
Computing Atmospheric mass density...
Loading historical data...
Loading historical data...
Loading historical data...
Loading historical data...
Loading historical data...
Loading historical data...
Loading historical data...

Documentation

Showing up to 5 results
|